Regional Weather Roundup
Issued by NWS Charleston, SC

Current Version | Previous Version | Graphics & Text | Print | Product List | Glossary On
Versions: 1 2 3 4 5 6 7 8 9 10 11 12 13 14 15 16 17 18 19 20 21 22 23 24 25 26 27 28 29 30 31 32 33 34 35 36 37 38 39 40 41 42 43 44 45 46 47 48 49 50
000
ASUS42 KCHS 010628
RWRCHS

REGIONAL WEATHER ROUNDUP
NATIONAL WEATHER SERVICE CHARLESTON SC
200 AM EDT SUN MAY 01 2016

NOTE: "FAIR" INDICATES FEW OR NO CLOUDS BELOW 12,000 FEET WITH NO
SIGNIFICANT WEATHER AND/OR OBSTRUCTIONS TO VISIBILITY.

NOT ALL STATIONS ARE QUALITY CONTROLLED. USE DATA WITH CAUTION...
ESPECIALLY DEWPOINT OBSERVATIONS.

SCZ027-030-031-034>040-042>050-010700-
...SOUTHEAST SOUTH CAROLINA...

CITY           SKY/WX    TMP DP  RH WIND       PRES   REMARKS
N CHARLESTON   CLOUDY    73  66  78 SE14      30.05F
6HR MIN TEMP:  72; 6HR MAX TEMP:  76;

WATERFRONT PRK   N/A     73  70  90 SE13      30.05F
MOUNT PLEASANT FAIR      72  68  88 SE8       30.06F
JOHNS ISLAND   FAIR      73  70  88 SE6       30.06F
PINOPOLIS        N/A     72  68  88 CALM      29.98F
MONCKS CORNER  FAIR      64  63  94 CALM      30.06F
SUMMERVILLE    FAIR      70  70 100 CALM      30.07F
BEAUFORT MCAS  CLOUDY    75  69  81 SE6       30.05F
6HR MIN TEMP:  73; 6HR MAX TEMP:  77;

BEAUFORT ARPT  MOCLDY    73  66  78 S7        30.04S
HILTON HEAD IS CLOUDY    75  72  88 SE5       30.06S
WALTERBORO     CLOUDY    72  72 100 CALM      30.06S
ALLENDALE      CLOUDY    72  70  94 SE3       30.04F

...SOUTHERN MIDLANDS AND PEE DEE...

CITY           SKY/WX    TMP DP  RH WIND       PRES   REMARKS
GEORGETOWN     FAIR      68  66  94 SE6       30.09S
KINGSTREE      CLOUDY    68  63  83 E5        30.08F
ORANGEBURG     CLOUDY    72  67  84 SE6       30.07S
6HR MIN TEMP:  72; 6HR MAX TEMP:  77;

BARNWELL       MOCLDY    73  73 100 SE8       30.05F
AIKEN          CLOUDY    70  64  83 SE7       30.08S
MANNING        NOT AVBL
COLUMBIA       CLOUDY    72  66  81 SE9       30.05S
6HR MIN TEMP:  72; 6HR MAX TEMP:  82; 6HR PCP: TRACE;

SUMTER         CLOUDY    68  64  88 SE8       30.05S
6HR MIN TEMP:  69; 6HR MAX TEMP:  78;

FLORENCE       CLOUDY    67  62  84 SE6       30.10S
6HR MIN TEMP:  67; 6HR MAX TEMP:  73;

MYRTLE BEACH   CLOUDY    70  61  73 E9        30.10F
N MYRTLE BEACH CLOUDY    69  66  90 E8        30.09F
6HR MIN TEMP:  67; 6HR MAX TEMP:  69;


$$

GAZ063-065-086>088-099>101-113>116-118-119-134>141-150-010700-
...SOUTHEAST GEORGIA...

CITY           SKY/WX    TMP DP  RH WIND       PRES   REMARKS
SAVANNAH ARPT  CLOUDY    75  70  84 SE8       30.04F
6HR MIN TEMP:  75; 6HR MAX TEMP:  77;

HUNTER AAF     MOCLDY    75  74  97 SE5       30.02F
6HR MIN TEMP:  75; 6HR MAX TEMP:  76;

FORT STEWART   CLOUDY    73  71  93 CALM      30.02S
6HR MIN TEMP:  73; 6HR MAX TEMP:  76; 6HR PCP: TRACE;

STATESBORO     CLOUDY    75  74  95 SE3       30.03F
SYLVANIA       MOCLDY    73  71  94 SE3       30.04F
CLAXTON        FAIR      73  72  98 CALM      30.03F

...CSRA...CENTRAL AND FAR SOUTHEAST GEORGIA...

CITY           SKY/WX    TMP DP  RH WIND       PRES   REMARKS
THOMSON        CLOUDY    75  71  88 SE5       30.05F
AUGUSTA-BUSH   CLOUDY    72  67  84 SE6       30.03S
6HR MIN TEMP:  72; 6HR MAX TEMP:  79;

AUGUSTA-DANIEL CLOUDY    74  66  76 SE9       30.04S
SWAINSBORO     MOCLDY    73  70  88 SE9       30.02F
VIDALIA        CLOUDY    72  70  94 SE6       30.01F
EASTMAN        FAIR      71  71 100 SE5       30.01F
HAZLEHURST     FAIR      74  71  90 SE6       29.99F
ALMA           CLOUDY    71  70  96 SE3       30.01F
6HR MIN TEMP:  71; 6HR MAX TEMP:  75; 6HR PCP:  0.01;

WAYCROSS       CLOUDY    73  71  93 SE6       30.01F
JESUP          MOCLDY    73  73 100 CALM      30.03F
BAXLEY         FAIR      73  73 100 SE3       30.01F
BRUNSWICK      CLOUDY    79  73  83 S5        30.04F
SAINT SIMONS   CLOUDY    75  72  90 S6        30.04S
6HR MIN TEMP:  74; 6HR MAX TEMP:  75;


$$

SCZ027-028-034-036>038-045-046-048>050-GAZ119-141-010700-
...LAKE AND SUPPLEMENTAL COASTAL OBSERVATIONS...

STATION/POSITION TIME  TEMP    WIND        PRES    WAVE   SWELL
                       AIR SEA DIR/SP/G            HT/PER HT/PER/DIR
                 (UTC) (F)     (DEG/KT/KT) (MB)    (FT/S) (FT/S/D)
WINYAH BAY       0500   70     110/ 10     1018.0S
LAKE MURRAY      0500   72     140/  9/ 13 1017.3R
ACE BASIN NERRS  0500   73     130/  3     1018.0S
FORT PULASKI     0600   75 73  140/  5/  9 1017.7F
SAPELO ISLAND    0600   75     150/  4     1017.0S

$$

ANZ835-935-AMZ111-154-330-350-352-354-370-450-454-472-010700-
...C-MAN AND BUOY OBSERVATIONS...

STATION/POSITION TIME  TEMP    WIND        PRES    WAVE   SWELL
                       AIR SEA DIR/SP/G            HT/PER HT/PER/DIR
                 (UTC) (F)     (DEG/KT/KT) (MB)    (FT/S) (FT/S/D)
BUOY 41004       0550   74 73  110/ 17/ 21 1017.5F   5/ 5   2/ 8
BUOY 41008       NOT AVBL
FOLLY BEACH CMAN 0600   72     130/ 10/ 12 1018.0F
CAPERS NEARSHORE 0508   73 71  120/ 16/ 19 1017.8S
FRIPP NEARSHORE  0608   74 73  130/ 12/ 16 1016.4F


STATION/POSITION TIME  TEMP    WIND        PRES    WAVE   SWELL
                       AIR SEA DIR/SP/G            HT/PER HT/PER/DIR
                 (UTC) (F)     (DEG/KT/KT) (MB)    (FT/S) (FT/S/D)
5E ST. MARYS GA  0521      74                N/A     2/ 9
FRYING PAN BUOY  0600   72 70  130/ 16/ 19 1018.8F
BUOY 41025       0550   67 74   50/ 12/ 14 1019.8F   5/ 9   5/ 60/ 9
CAPE LOOKOUT NC  0600   64      50/ 11/ 12 1019.7F
BUOY 41002       0550   71      80/ 14/ 17 1019.9F   5/ 8   5/ 20/ 8
BUOY 41010       0520   77 77  110/ 10/ 12 1017.7S
ST AUGUSTINE FL  0600   72 72  190/  5/  6 1018.1R


$$



USA.gov is the U.S. government's official web portal to all federal, state and local government web resources and services.